Погода в Караауле

Казахстан     48°56′45″N   79°15′21″E
темп.,
°C
ветер,
м/с
пор.,
м/с
влажн.,
%
обл.,
%
осадки,
мм/ч
давл.,
гПа
погр.,
м
2 марта, вт
вт200:00−2юз111975100 0.0 1020435
03:00−3юз81580100 0.0 1019366
06:00−3зюз61184100 0.1 1020281
09:00−3юз61088100 0.4 1020274
12:00−1юз6985100 1.3 1018410
15:00+1юз51189100 0.1 1016645
18:00−1юз91580100 0.1 1015511
21:00−2зюз7148384 0.0 1016379
3 марта, ср
ср300:00−4зюз468789 0.1 101891
03:00−8зюз5883100 0.0 1021145
06:00−10зюз5108277 0.0 1023246
09:00−11зюз478024 0.0 1026227
12:00−8зюз467212 0.0 1027497
15:00−7зюз710700 0.0 1026527
18:00−10зюз611750 0.0 1028259
21:00−12юз7127338 0.0 1030184
4 марта, чт
чт400:00−12юз6107119 0.0 1030147
03:00−12юз69640 0.0 1030125
06:00−12юз58600 0.0 1030113
09:00−10юз59680 0.0 1030195
12:00−4юз610620 0.0 1029354
15:00−4ююз6106223 0.0 1026368
18:00−6ююз596748 0.0 1026178
21:00−7ю6116934 0.0 1024216
5 марта, пт
пт500:00−6ююз7147740 0.0 1022273
03:00−4ююв3785100 0.0 1019149
06:00−4вюв4596100 0.3 1017113
09:00−4сз3497100 6.4 1017193
12:00−2сз91293100 8.4 1023802
15:00−2з7107341 0.1 1029981
18:00−6зюз467921 0.1 1032114
21:00−9юз510730 0.0 1034144
6 марта, сб
сб600:00−9юз611677 0.0 1034171
03:00−8юз6116463 0.0 1032180
06:00−9ююз6106531 0.0 1032167
09:00−6ю49770 0.0 1030245
12:00−3ююз58820 0.0 1028429
15:00−1юз59750 0.0 1025568
18:00−4ююз12780 0.0 102521
21:00−8ю12800 0.0 102621